sat.trackr.live / text

‹ back to catalog

COSMOS 2453

NORAD 35500 · 2009-036C

PAYLOAD ACTIVE UNKNOWN

§ Identity

Operator
Country
CIS
Launch date
2009-07-06
Launch site
PLMSC
Launch vehicle
Mass (kg)
RCS (m²)
0.82

External: N2YO · Heavens-Above · Gunter

§ Orbital elements

Epoch: 2026-09-20T03:47:36.390912Z

Period
115.99 min
Inclination
82.4915°
Eccentricity
0.0006242
Mean motion
12.41521648 rev/d
Perigee alt
1,495.2 km
Apogee alt
1,505.1 km
Semi-major
7,878.3 km
B*
2.6000e-4
RAAN
28.8844°
Arg perigee
326.0316°
Mean anomaly
34.0362°
Rev number
77,976

§ Raw data

COSMOS 24531 35500U 09036C   26263.15806008  .00000045  00000+0  26000-3 0  99972 35500  82.4915  28.8844 0006242 326.0316  34.0362 12.41521648779761

JSON: /api/v1/satellites/35500 · /tle

For live sub-satellite position, see the globe view (requires WebGL).

§ Visibility from observer

Set your observer location to see the next 7 days of passes ≥ 10°. The values pass through the URL so the page stays shareable.

No JS? Fill the form by hand. The geolocation button needs JavaScript.